Regional Weather Roundup
Issued by NWS

Home | Current Version | Previous Version | Text Only | Print | Product List | Glossary On
Versions: 1 2 3 4 5 6 7 8 9 10 11 12 13 14 15 16 17 18 19 20 21 22 23 24 25 26 27 28 29 30 31 32 33 34 35 36 37 38 39 40 41 42 43 44 45 46 47 48 49 50
000
ASUS43 KLSX 300859
RWRMO

WEATHER SUMMARY FOR MISSOURI
NATIONAL WEATHER SERVICE SPRINGFIELD MO
400 AM CDT THU JUL 30 2015

NOTE: "FAIR" INDICATES FEW OR NO CLOUDS BELOW 12,000 FEET WITH NO
       SIGNIFICANT WEATHER AND/OR OBSTRUCTIONS TO VISIBILITY.
       CURRENT SKY AND/OR WEATHER CONDITIONS ARE NOT AVAILABLE FOR
       CHILLICOTHE AND FARMINGTON.

MOZ001>031-035>038-043-044-053-054-301000-
...NORTHERN AND WESTERN MISSOURI...

CITY           SKY/WX    TMP DP  RH WIND       PRES   REMARKS
KANSAS CTY INT PTCLDY    65  63  93 MISG      30.18R
KANSAS C DTWN  CLEAR     69  66  90 CALM      30.17S
LEE`S SUMMIT   PTCLDY    65  63  93 CALM      30.18S
ST JOSEPH      FOG       64  64 100 CALM      30.18S VSB 1/2
CHILLICOTHE      N/A     64  62  93 CALM      30.18R
KIRKSVILLE     CLEAR     62  60  93 W3        30.17S

$$
MOZ066>068-077>081-088>096-101>105-301000-
...SOUTHWEST MISSOURI...

CITY           SKY/WX    TMP DP  RH WIND       PRES   REMARKS
SPRINGFIELD    PTCLDY    72  65  78 NE5       30.16S
JOPLIN         MOCLDY    74  67  78 NE6       30.16R

$$
MOZ032>034-039>042-045>050-055>058-069>072-301000-
...CENTRAL MISSOURI...

CITY           SKY/WX    TMP DP  RH WIND       PRES   REMARKS
COLUMBIA       CLEAR     66  61  84 NW5       30.16S
JEFFERSON CITY FOG       65  64  97 NW3       30.15S VSB 1
ROLLA          CLEAR     63  60  90 CALM      30.15R
SEDALIA        CLEAR     67  64  90 CALM      30.18S
OSAGE BEACH    CLEAR     64  61  88 CALM      30.16S

$$
MOZ051-052-059>065-301000-
...EAST CENTRAL MISSOURI...

CITY           SKY/WX    TMP DP  RH WIND       PRES   REMARKS
ST LOUIS INTL  PTCLDY    71  62  73 NW6       30.12S
SPIRIT OF STL  CLEAR     65  64  97 SW3       30.11F
ST CHARLES     CLEAR     72  60  66 CALM      30.11S

$$
MOZ072>076-082>087-097>100-106>115-301000-
...SOUTH CENTRAL AND SOUTHEAST MISSOURI...

CITY           SKY/WX    TMP DP  RH WIND       PRES   REMARKS
CAPE GIRARDEAU NOT AVBL
FARMINGTON     CLEAR     68  59  73 N5        30.16S
POPLAR BLUFF   CLEAR     72  64  76 N8        30.08R
WEST PLAINS    CLEAR     69  63  81 N8        30.16R

$$



USA.gov is the U.S. government's official web portal to all federal, state and local government web resources and services.